Volver al catálogo

FENGYUN 1C DEB

ActivoSSO
NORAD 30505·DEBRIS·🇨🇳 China

Lanzado May 10, 1999 desde Taiyuan Satellite Launch Center

Loading…

Próximos Pases (próximas 24 horas)

TLE

ActualizadoSource: Space-Track

Época: Sep 14, 2026, 12:17 UTC

1 30505U 99025AHT 26257.51202514  .00002114  00000-0  92851-3 0  9996
2 30505  98.9163 345.6544 0064240 169.7873 314.5879 14.23563699  8372

Sigue FENGYUN 1C DEB en tiempo real con AllMySat

Download on the App Store